Regional Weather Roundup
Issued by NWS

Home | Current Version | Previous Version | Text Only | Print | Product List | Glossary On
Versions: 1 2 3 4 5 6 7 8 9 10 11 12 13 14 15 16 17 18 19 20 21 22 23 24 25 26 27 28 29 30 31 32 33 34 35 36 37 38 39 40 41 42 43 44 45 46 47 48 49 50
000
ASUS43 KIND 070009
RWRIN

WEATHER ROUNDUP FOR INDIANA
NATIONAL WEATHER SERVICE INDIANAPOLIS IN
800 PM EDT FRI MAY 06 2016

NOTE: "FAIR" INDICATES FEW OR NO CLOUDS BELOW 12,000 FEET WITH NO
SIGNIFICANT WEATHER AND/OR OBSTRUCTIONS TO VISIBILITY.

* - STATION DOES NOT REPORT WEATHER SUCH AS PRECIPITATION OR FOG.

+ - STATION NOT QUALITY CONTROLLED BY THE NATIONAL WEATHER SERVICE.
    USE DATA WITH CAUTION...ESPECIALLY DEWPOINT AND RELATIVE
    HUMIDITY OBSERVATIONS.

INZ001>003-010>013-019-020-070100-
NORTHWEST INDIANA

CITY           SKY/WX    TMP DP  RH WIND       PRES   REMARKS
GARY /AIRPORT/ PTCLDY    82  55  39 W12       29.79F
KNOX *+          N/A     72  32  23 S6          N/A
LA PORTE +     CLEAR     73  44  34 S3        29.82F
6HR MIN TEMP:  72; 6HR MAX TEMP:  76;

MICHIGAN CITY+ CLEAR     73  45  35 SE5       29.81F
MONTICELLO +   PTCLDY    72  36  27 SW7       29.84S
6HR MIN TEMP:  69; 6HR MAX TEMP:  75;

RENSSELAER +   CLEAR     73  41  31 S7        29.82F
VALPARAISO     CLEAR     73  45  36 S6        29.81F
6HR MIN TEMP:  71; 6HR MAX TEMP:  76;


$$

LMZ046-743>745-070100-
SOUTHERN LAKE MICHIGAN

STATION/POSITION TIME  TEMP    WIND        PRES    WAVE
                       AIR SEA DIR/SP/G            HT
                 (UTC) (F)     (DEG/KT/KT) (MB)    (FT)
BURNS HARBOR     2300   75     200/  5/ 10 1009.8F
MICHIGAN CITY    2300   75     160/ 10/ 11   N/A

$$

INZ004-005-014>016-021>024-070100-
NORTH CENTRAL INDIANA

CITY           SKY/WX    TMP DP  RH WIND       PRES   REMARKS
ELKHART        CLEAR     72  50  46 SW5       29.84F
GOSHEN         CLEAR     68  49  50 SW5       29.84F
6HR MIN TEMP:  66; 6HR MAX TEMP:  70;

LOGANSPORT +   PTCLDY    68  46  45 SW5       29.86S
PERU/GRISSOM   MOCLDY    68  53  56 S5        29.85F
6HR MIN TEMP:  68; 6HR MAX TEMP:  72;

ROCHESTER +    CLEAR     72  45  37 S5        29.85F
SOUTH BEND     CLEAR     71  45  39 S7        29.83F
6HR MIN TEMP:  69; 6HR MAX TEMP:  73;

WARSAW +       PTCLDY    68  45  42 W3        29.85F

$$

INZ006>009-017-018-025>027-070100-
NORTHEAST INDIANA

CITY           SKY/WX    TMP DP  RH WIND       PRES   REMARKS
ANGOLA *+        N/A     70  43  37 W6        29.85F
AUBURN +       CLEAR     68  41  37 W5        29.86S
FORT WAYNE     PTCLDY    68  46  45 W7        29.86F
6HR MIN TEMP:  67; 6HR MAX TEMP:  71;

HUNTINGTON +   CLEAR    N/A N/A N/A W3        29.86S

$$

INZ028-029-035-036-043>045-051>053-070100-
WEST CENTRAL INDIANA

CITY           SKY/WX    TMP DP  RH WIND       PRES   REMARKS
CRAWFORDSVL +  MOCLDY    67  46  45 SW5       29.88F
6HR MIN TEMP:  66; 6HR MAX TEMP:  71;

GREENCASTLE +  MOCLDY    68  50  52 CALM      29.89F
LAFAYETTE      CLEAR     70  42  36 SW6       29.84F
6HR MIN TEMP:  69; 6HR MAX TEMP:  74;

TERRE HAUTE    CLEAR     69  45  41 SW8       29.90F
6HR MIN TEMP:  69; 6HR MAX TEMP:  74;


$$

INZ030>032-037>040-046>048-054>057-064-065-070100-
CENTRAL INDIANA

CITY           SKY/WX    TMP DP  RH WIND       PRES   REMARKS
CP ATTERBURY + CLEAR     68  41  37 CALM      29.90F
COLUMBUS       CLEAR     68  46  45 NW5       29.90F
FRANKFORT +      N/A     68  32  26 SW6       29.89S
6HR MIN TEMP:  68; 6HR MAX TEMP:  74;

INDIANAPOLIS   PTCLDY    67  43  41 W8        29.88F
6HR MIN TEMP:  67; 6HR MAX TEMP:  72;

-EAGLE CREEK   PTCLDY    69  42  37 W5        29.88F
6HR MIN TEMP:  67; 6HR MAX TEMP:  71;

KOKOMO *+      PTCLDY    70  48  46 W5        29.85F
6HR MIN TEMP:  66; 6HR MAX TEMP:  72;

MARION +       CLEAR     67  45  45 W3        29.88F
SHELBYVILLE    CLEAR     69  44  40 W6        29.88F
6HR MIN TEMP:  69; 6HR MAX TEMP:  73;

ZIONSVILLE +   CLEAR     66  45  45 SW6       29.89F
6HR MIN TEMP:  64; 6HR MAX TEMP:  70;


$$

INZ033-034-041-042-049-050-058-059-070100-
EAST CENTRAL INDIANA

CITY           SKY/WX    TMP DP  RH WIND       PRES   REMARKS
MUNCIE         CLEAR     68  43  40 W7        29.88S
6HR MIN TEMP:  67; 6HR MAX TEMP:  71;


$$

INZ060-061-067>069-081>083-085>088-070100-
SOUTHWEST INDIANA

CITY           SKY/WX    TMP DP  RH WIND       PRES   REMARKS
EVANSVILLE     PTCLDY    69  43  38 W5        29.95S
6HR MIN TEMP:  68; 6HR MAX TEMP:  73;

HUNTINGBURG *+ CLEAR     66  46  48 W8        29.94S
6HR MIN TEMP:  66; 6HR MAX TEMP:  72;

WASHINGTON +   CLOUDY    70  47  43 W9        29.92S
6HR MIN TEMP:  68; 6HR MAX TEMP:  73;


$$

INZ062-063-066-070>080-084-089>092-070100-
SOUTH CENTRAL AND SOUTHEAST INDIANA

CITY           SKY/WX    TMP DP  RH WIND       PRES   REMARKS
BLOOMINGTON    CLEAR     69  42  37 W6        29.91F
6HR MIN TEMP:  68; 6HR MAX TEMP:  73;

MADISON *+     CLEAR     68  34  28 NW3       29.92S
SEYMOUR +      CLEAR     68  45  42 NW3       29.90S

$$





USA.gov is the U.S. government's official web portal to all federal, state and local government web resources and services.